www.pogodaiklimat.ru

Погода и климат >> Архив погоды >> Китай >> Гирин >> Линьцзян


ПОГОДА в Линьцзяне

  • Прогноз погоды в Линьцзяне
  • Монитор погоды в Линьцзяне

АРХИВ ПОГОДЫ в Линьцзяне

Время (UTC), дата Ветер
(напр.,м/с)
 
Видим.   Явления Облачность Т
(С)
Тd
(С)
f
(%)
Тe
(С)
Тes
(С)
Комфортность P
(гПа)
Po
(гПа)
Тmin
(С)
Tmax
(С)
R
(мм)
R24
(мм)
S
(см)
09 14.07 В 1 30 км {дождь} 8/8 1000 м
[]
+23.4 +20.3 83 +31 +31 очень
душно
1002.3 964.6
12 14.07 СЗ 1 28 км {дождь} 9/9 1000 м
[]
+20.7 +19.0 90 +26 +26 душно 1004.3 960.8
15 14.07 С 1 8000 м н/о +18.8 +18.2 96 +21 +21 комфорт 1005.0 966.6
18 14.07 С 1 11 км н/о +18.5 +17.9 96 +20 +20 1005.7 962.2 +27.3
21 14.07 С 1 7000 м в посл. час дождь н/о +18.4 +17.8 96 +20 +20 1006.7 968.2
00 15.07 штиль 0 н/о 9/9 1000 м
[]
+20.3 +18.4 89 +24 +25 комфорт 1007.6 964.0 1
03 15.07 ЮЗ 2 21 км 8/8 1000 м
[]
+23.3 +19.3 78 +30 +34 очень
душно
1007.1 969.2
06 15.07 В 2 30 км 9/9 1000 м
[]
+26.9 +18.7 61 +32 +33 очень
душно
1005.6 962.4 +18.3
09 15.07 В 1 10 км слаб. дождь 9/9 1000 м
[]
+22.7 +19.5 82 +29 +29 очень
душно
1006.6 968.6
12 15.07 С 1 30 км {дождь} 9/9 1000 м
[]
+21.5 +17.9 80 +26 +26 душно 1008.8 965.2 9
15 15.07 С 1 23 км н/о +18.9 +17.7 93 +21 +21 комфорт 1009.9 971.3
18 15.07 С 1 26 км н/о +18.7 +17.7 94 +21 +21 комфорт 1010.3 966.9 +27.3
21 15.07 штиль 0 8000 м дымка н/о +18.8 +17.6 93 +20 +20 1011.5 972.8
00 16.07 Ю 1 28 км 9/9 1000 м
[]
+21.4 +17.6 79 +26 +27 душно 1012.0 968.3
03 16.07 Ю 2 30 км 6/6 1000 м
[]
+25.9 +18.1 62 +30 +38 душно 1010.6 972.9
06 16.07 З 2 30 км 9/9 1000 м
[]
+27.4 +17.6 55 +32 +33 очень
душно
1009.3 966.0 +18.6
09 16.07 Ю 1 30 км ясно +27.3 +17.8 56 +32 +35 очень
душно
1008.1 970.6
12 16.07 С 2 29 км 6/6 1000 м
[]
+21.6 +19.0 85 +26 +26 душно 1010.0 966.4
15 16.07 С 2 14 км н/о +19.1 +17.9 93 +21 +21 комфорт 1011.0 972.4
18 16.07 С 1 11 км н/о +18.2 +17.6 96 +20 +20 1011.5 968.1 +27.8
21 16.07 С 2 9000 м н/о +18.3 +17.3 94 +19 +19 1011.0 972.3
00 17.07 Ю 1 13 км 9/9 1000 м
[]
+21.0 +18.6 86 +27 +28 душно 1011.7 968.0
03 17.07 Ю 3 29 км 5/5 1000 м
[]
+26.5 +20.1 68 +33 +41 очень
душно
1009.9 972.3
06 17.07 З 2 30 км 6/6 1000 м
[]
+27.4 +17.9 56 +32 +37 очень
душно
1008.6 965.3 +17.9
09 17.07 З 2 30 км 5/5 1000 м
[]
+26.9 +17.1 55 +31 +32 душно 1008.3 970.8
12 17.07 СЗ 1 18 км ясно +22.1 +18.5 80 +27 +27 душно 1009.6 966.1
15 17.07 С 1 10 км ?/? +19.4 +18.1 92 +23 +23 комфорт 1010.6 972.0
18 17.07 С 2 10 км н/о +18.5 +17.4 93 +20 +20 1010.2 966.8 +28.3
21 17.07 С 1 6000 м дымка н/о +18.2 +17.2 94 +20 +20 1010.5 971.8
00 18.07 Ю 1 12 км 10/10 1000 м
[]
+20.6 +18.2 86 +26 +26 душно 1010.1 966.5
03 18.07 З 1 4200 м слаб. дождь 9/9 1000 м
[]
+23.0 +20.3 85 +30 +32 очень
душно
1009.7 971.6
06 18.07 ЮЗ 3 29 км {дождь} 8/8 1000 м
[]
+27.4 +18.7 59 +32 +35 очень
душно
1006.7 963.5 +18.0 0.4
09 18.07 Ю 2 30 км 6/6 1000 м
[]
+28.3 +19.3 58 +34 +35 очень
душно
1006.0 968.7
12 18.07 С 2 28 км 9/9 1000 м
[]
+23.5 +20.1 81 +29 +29 душно 1008.2 964.8
15 18.07 С 1 8000 м н/о +20.0 +18.8 93 +24 +24 комфорт 1008.9 970.5
18 18.07 С 2 7000 м н/о +18.7 +17.9 95 +20 +20 1008.8 965.5 +29.3
21 18.07 СВ 1 3400 м дымка н/о +19.4 +18.1 92 +23 +23 комфорт 1009.3 970.8
00 19.07 С 1 2500 м дымка 9/9 1000 м
[]
+21.1 +18.5 85 +25 +26 комфорт 1009.9 966.5
03 19.07 С 1 25 км 3/3 1000 м
[]
+26.9 +19.8 65 +33 +48 очень
душно
1008.3 970.8
06 19.07 Ю 2 30 км 3/3 1000 м
[]
+31.2 +18.6 47 +36 +46 очень
душно
1005.8 962.9 +18.6
09 19.07 З 2 26 км ясно +30.0 +21.4 60 +38 +40 очень
душно
1005.1 968.1
12 19.07 С 1 16 км ясно +23.8 +19.7 78 +29 +29 душно 1006.6 963.3
15 19.07 С 2 20 км н/о +21.0 +18.8 87 +26 +26 душно 1007.5 969.3
18 19.07 С 2 10 км н/о +19.7 +18.2 91 +23 +23 комфорт 1007.3 964.4 +31.7
21 19.07 С 2 9000 м н/о +18.6 +17.4 93 +20 +20 1008.2 969.6
00 20.07 Ю 1 16 км ясно +24.4 +19.0 72 +29 +40 душно 1007.3 964.2
03 20.07 Ю 1 30 км ясно +31.1 +18.8 48 +36 +59 опасность
солнечного
удара
1005.1 968.2
06 20.07 З 2 30 км 6/6 600 м
[]
+33.8 +18.7 41 +39 +44 очень
душно
1002.3 959.8 +18.4
09 20.07 В 2 30 км 8/8 600 м
[]
+31.2 +21.1 55 +39 +39 очень
душно
1001.8 965.0
12 20.07 СВ 3 30 км 9/9 1000 м
[]
+29.1 +18.6 53 +34 +34 очень
душно
1002.9 960.4
15 20.07 С 1 30 км н/о +26.0 +19.2 66 +31 +31 очень
душно
1002.5 965.1
18 20.07 С 2 30 км слаб. дождь ?/? +22.8 +19.8 83 +29 +29 очень
душно
1002.2 959.9 +34.9
21 20.07 С 1 30 км слаб. дождь н/о +22.7 +19.9 84 +29 +29 очень
душно
1002.5 964.7
00 21.07 С 1 30 км 8/8 1000 м
[]
+26.2 +20.8 72 +33 +35 очень
душно
1001.3 959.0 0.0
03 21.07 ЮЗ 1 30 км 9/9 1000 м
[]
+28.3 +20.6 63 +35 +37 очень
душно
1000.3 963.2
06 21.07 Ю 2 20 км слаб. дождь 9/9 1000 м
[]
+24.9 +22.2 85 +32 +34 очень
душно
1000.0 957.2 +22.3 0.5

 

Местоположение метеостанции Линьцзян (Гирин, Китай): широта 41.72 долгота 126.91 высота над уровнем моря 333 м.

В архиве по умолчанию представлена погода в Линьцзяне за последнюю неделю. Архивные данные за месяц целиком и за предыдущие месяцы, начиная с января 2011 года, Вы можете получить, выбрав интересующий диапазон дат из раскрывающегося списка и нажав кнопку "Ввод!".


*Определитесь, кто Вы:
робот инопланетянин человек

Внимание! Время в таблицах - всемирное. Для получения местного времени необходимо прибавить поправку, которая равна 8 ч.

Смотрите также архив погоды в соседних городах и на ближайших метеорологических станциях:

Погода в Чунгане (КНДР) (7 км)
Погода в Канге (КНДР) (87 км)
Погода в Цзиане (Цзяньси, Китай) (94 км)
Погода в Хесене (КНДР) (110 км)
Погода в Чанбае (Гирин, Китай) (112 км)
Погода в Самджиёне (КНДР) (116 км)
Погода в Хуадяне (Гирин, Китай) (141 км)
Погода в Пунгсане (КНДР) (144 км)
Погода в Джангджине (КНДР) (153 км)
Погода в Цинъюане (Гуандун, Китай) (168 км)

Пояснения к столбцам:

Ветер - указаны скорость ветра в м/с - средняя за 10 мин, порывы в срок и между сроками (в фигурных скобках) и направление, откуда дует ветер: С - северный, СВ - северо-восточный, В - восточный, ЮВ - юго-восточный, Ю - южный, ЮЗ - юго-западный, З - западный, СЗ - северо-западный.
Видимость - горизонтальная дальность видимости в метрах или километрах. При видимости от 1 до 10 км при отсутствии осадков обычно наблюдается дымка, при ухудшении видимости до 1 км и менее - туман. В сухую погоду видимость может ухудшаться дымом, пылью или мглою.
Явления - указаны атмосферные явления, наблюдавшиеся в срок или в последний час перед сроком; фигурными скобками обозначены явления, наблюдавшиеся между сроками (за 1-3 часа до срока); квадратными скобками обозначены град или гололедные отложения с указанием их диаметра в мм.
Облачность - указаны через наклонную черту общая и нижняя облачность в баллах и высота нижней границы облаков в метрах; квадратными скобками обозначены формы облаков: Ci - перистые, Cs - перисто-слоистые, Cc - перисто-кучевые, Ac - высококучевые, As - высокослоистые, Sc - слоисто-кучевые, Ns - слоисто-дождевые, Cu - кучевые, Cb - кучево-дождевые. Подробнее классификацию облаков см. в Атласе облаков (PDF).
T - Температура воздуха - температура, измеренная на высоте 2 м над землей.
Td - Температура точки росы - температура, при понижении до которой содержащийся в воздухе водяной пар достигнет насыщения.
f - Относительная влажность воздуха - влажноcть воздуха, измеренная на высоте 2 м над землей.
Te - Эффективная температура - температура, которую ощущает одетый по сезону человек в тени. Характеристика душности погоды. При расчете учитывается влияние влажности воздуха и скорости ветра на теплоощущения человека.
Tes - Эффективная температура на солнце - температура, которую ощущает человек, с поправкой на солнечный нагрев. Характеристика знойности погоды. Зависит от высоты солнца над горизонтом, облачности и скорости ветра. Ночью, в пасмурную погоду, а также при ветре 12 м/с и более поправка равна нулю.
P - Атмосферное давление - приведенное к уровню моря атмосферное давление.
Po - Атмосферное давление - измеренное на уровне метеостанции атмосферное давление.
Tmin - Минимальная температура - минимум температуры воздуха на высоте 2 м над землей.
Tmax - Максимальная температура - максимум температуры воздуха на высоте 2 м над землей.
R - Количество осадков - Количество выпавших осадков за период времени, мм. При наведении курсора мыши на число - период времени, за который выпало указанное количество осадков.
R24 - Количество осадков - Количество выпавших осадков за 24 часа, мм.
S - Снежный покров - Высота снежного покрова, см. При наведении курсора мыши на число - состояние снежного покрова и степень покрытия местности в баллах.